{"data":{"norad_id":56944,"intl_designator":"2023-084N","name":"NUSAT-41 (C PAYNE-G)","alt_names":[],"object_type":"PAYLOAD","status":"ACTIVE","operator":null,"country":"ARGN","launch_date":"2023-06-12","launch_site_code":"AFWTR","launch_vehicle":null,"mission":null,"orbit_class":"UNKNOWN","rcs_meters":null,"size_class":null,"mass_kg":null,"dimensions":null,"purposes":[],"wikipedia_slug":null,"has_3d_model":false,"image_url":null,"decayed_at":null,"tle_current":{"epoch":"2026-09-21T21:57:02.253888Z","epoch_age_seconds":77415,"freshness":"FRESH","line1":"1 56944U 23084N   26264.91460942  .00006205  00000+0  21339-3 0  9993","line2":"2 56944  97.5643  43.2767 0006978 347.7415  12.3655 15.30439442182574","mean_motion":15.30439442,"eccentricity":0.0006978,"inclination_deg":97.5643,"raan_deg":43.2767,"arg_perigee_deg":347.7415,"mean_anomaly_deg":12.3655,"bstar":0.00021339,"rev_number":18257,"period_min":94.090622633078,"perigee_km":469.71846171911,"apogee_km":479.28200224006,"semimajor_km":6852.6372319796,"source":"CELESTRAK","updated_at":"2026-09-22T09:00:25.992673Z"}}}